timestamp,wind_dir_avg,wind_spd_avg,wind_spd_max_dir,wind_spd_gust,battery_voltage,lat,long
2022-02-09 00:04:01+00:00,130.0,7.03,121.0,8.71,12.49,47.59359,-54.27349
2022-02-09 00:14:00+00:00,126.0,5.53,126.0,6.96,12.41,47.59359,-54.27349
2022-02-09 00:24:00+00:00,131.0,5.7,108.0,7.89,12.41,47.59359,-54.27349
2022-02-09 00:34:00+00:00,118.0,7.26,116.0,9.49,12.41,47.59359,-54.27349
2022-02-09 00:44:00+00:00,119.0,5.62,103.0,9.96,12.41,47.59359,-54.27349
2022-02-09 00:54:00+00:00,115.0,7.16,118.0,9.72,12.41,47.59359,-54.27349
2022-02-09 01:04:00+00:00,118.0,4.43,103.0,9.36,12.41,47.59359,-54.27349
2022-02-09 01:14:01+00:00,109.0,7.52,110.0,10.52,12.41,47.59359,-54.27349
2022-02-09 01:24:01+00:00,106.0,6.53,113.0,10.2,12.41,47.59359,-54.27349
2022-02-09 01:34:01+00:00,104.0,7.2,83.0,10.76,12.41,47.59359,-54.27349
2022-02-09 01:44:01+00:00,105.0,6.56,121.0,11.0,12.41,47.59359,-54.27349
2022-02-09 01:54:01+00:00,106.0,5.16,109.0,10.55,12.41,47.59359,-54.27349
2022-02-09 02:04:01+00:00,98.0,3.59,94.0,9.73,12.41,47.59359,-54.27349
2022-02-09 02:14:00+00:00,112.0,5.85,114.0,10.88,12.41,47.59359,-54.27349
2022-02-09 02:24:00+00:00,120.0,10.26,118.0,12.04,12.41,47.59359,-54.27349
2022-02-09 02:34:00+00:00,116.0,10.08,120.0,11.95,12.41,47.59359,-54.27349
2022-02-09 02:44:00+00:00,106.0,7.53,121.0,10.66,12.41,47.59359,-54.27349
2022-02-09 02:54:00+00:00,125.0,9.7,123.0,12.36,12.41,47.59359,-54.27349
2022-02-09 03:04:00+00:00,119.0,10.35,121.0,12.32,12.41,47.59359,-54.27349
2022-02-09 03:14:01+00:00,126.0,9.8,120.0,12.05,12.41,47.59359,-54.27349
2022-02-09 03:24:01+00:00,119.0,10.61,122.0,12.11,12.41,47.59359,-54.27349
2022-02-09 03:34:01+00:00,124.0,10.01,125.0,13.4,12.41,47.59359,-54.27349
2022-02-09 03:44:01+00:00,127.0,9.38,127.0,11.41,12.41,47.59359,-54.27349
2022-02-09 03:54:01+00:00,130.0,9.9,119.0,13.21,12.41,47.59359,-54.27349
2022-02-09 04:04:01+00:00,129.0,10.83,128.0,14.39,12.41,47.59359,-54.27349
2022-02-09 04:14:01+00:00,315.0,0.01,125.0,0.0,12.41,47.59359,-54.27349
2022-02-09 04:24:01+00:00,129.0,9.31,143.0,12.79,12.41,47.59359,-54.27349
2022-02-09 04:34:01+00:00,125.0,10.71,128.0,13.02,12.41,47.59359,-54.27349
2022-02-09 04:44:01+00:00,132.0,9.7,137.0,11.68,12.41,47.59359,-54.27349
2022-02-09 04:54:01+00:00,125.0,10.73,131.0,12.97,12.41,47.59359,-54.27349
2022-02-09 05:04:01+00:00,124.0,9.52,117.0,11.02,12.41,47.59359,-54.27349
2022-02-09 05:14:00+00:00,112.0,8.14,124.0,11.39,12.41,47.59359,-54.27349
2022-02-09 05:24:00+00:00,106.0,5.64,108.0,10.53,12.41,47.59359,-54.27349
2022-02-09 05:34:00+00:00,108.0,2.88,105.0,10.28,12.41,47.59359,-54.27349
2022-02-09 05:44:00+00:00,117.0,3.6,111.0,9.16,12.41,47.59359,-54.27349
2022-02-09 05:54:00+00:00,113.0,7.37,114.0,11.37,12.41,47.59359,-54.27349
2022-02-09 06:04:00+00:00,113.0,6.13,119.0,10.95,12.41,47.59359,-54.27349
2022-02-09 06:14:01+00:00,105.0,5.34,116.0,9.06,12.41,47.59359,-54.27349
2022-02-09 06:24:01+00:00,123.0,6.86,139.0,11.2,12.41,47.59359,-54.27349
2022-02-09 06:34:01+00:00,124.0,7.21,118.0,9.31,12.41,47.59359,-54.27349
2022-02-09 06:44:01+00:00,127.0,6.33,147.0,9.77,12.41,47.59359,-54.27349
2022-02-09 06:54:01+00:00,141.0,10.43,127.0,15.57,12.41,47.59359,-54.27349
2022-02-09 07:04:01+00:00,145.0,10.33,140.0,12.73,12.41,47.59359,-54.27349
2022-02-09 07:14:01+00:00,155.0,11.9,159.0,15.15,12.41,47.59359,-54.27349
2022-02-09 07:24:01+00:00,158.0,11.7,160.0,14.76,12.41,47.59359,-54.27349
2022-02-09 07:34:01+00:00,153.0,13.47,144.0,16.39,12.41,47.59359,-54.27349
2022-02-09 07:44:01+00:00,161.0,16.86,153.0,22.07,12.41,47.59359,-54.27349
2022-02-09 07:54:01+00:00,163.0,16.88,165.0,20.4,12.41,47.59359,-54.27349
2022-02-09 08:04:01+00:00,164.0,18.79,167.0,22.42,12.41,47.59359,-54.27349
2022-02-09 08:14:00+00:00,164.0,18.85,163.0,22.7,12.41,47.59359,-54.27349
2022-02-09 08:24:00+00:00,164.0,18.39,165.0,21.72,12.41,47.59359,-54.27349
2022-02-09 08:34:00+00:00,164.0,19.52,160.0,23.93,12.41,47.59359,-54.27349
2022-02-09 08:44:00+00:00,166.0,18.29,167.0,21.19,12.41,47.59359,-54.27349
2022-02-09 08:54:00+00:00,163.0,17.23,165.0,19.55,12.41,47.59359,-54.27349
2022-02-09 09:04:00+00:00,164.0,16.8,166.0,19.96,12.41,47.59359,-54.27349
2022-02-09 09:14:01+00:00,162.0,15.9,163.0,17.76,12.41,47.59359,-54.27349
2022-02-09 09:24:01+00:00,161.0,15.08,164.0,17.25,12.41,47.59359,-54.27349
2022-02-09 09:34:01+00:00,162.0,13.62,160.0,16.12,12.41,47.59359,-54.27349
2022-02-09 09:44:01+00:00,161.0,12.49,155.0,13.85,12.41,47.59359,-54.27349
2022-02-09 09:54:01+00:00,161.0,12.83,163.0,15.0,12.41,47.59359,-54.27349
2022-02-09 10:04:01+00:00,176.0,12.43,179.0,14.31,12.41,47.59359,-54.27349
2022-02-09 10:14:01+00:00,178.0,13.31,165.0,14.76,12.41,47.59359,-54.27349
2022-02-09 10:24:01+00:00,171.0,11.95,196.0,14.0,12.41,47.59359,-54.27349
2022-02-09 10:34:01+00:00,185.0,13.93,196.0,16.98,12.41,47.59359,-54.27349
2022-02-09 10:44:01+00:00,180.0,12.78,181.0,14.08,12.41,47.59359,-54.27349
2022-02-09 10:54:01+00:00,189.0,11.32,198.0,13.18,12.41,47.59359,-54.27349
2022-02-09 11:04:01+00:00,180.0,9.99,182.0,11.42,12.41,47.59359,-54.27349
2022-02-09 11:14:00+00:00,202.0,13.26,201.0,14.93,12.33,47.59359,-54.27349
2022-02-09 11:24:00+00:00,201.0,12.2,201.0,13.54,12.33,47.59359,-54.27349
2022-02-09 11:34:00+00:00,200.0,11.9,198.0,13.75,12.33,47.59359,-54.27349
2022-02-09 11:44:00+00:00,193.0,12.72,198.0,14.77,12.33,47.59359,-54.27349
2022-02-09 11:54:00+00:00,195.0,12.35,191.0,14.31,12.33,47.59359,-54.27349
2022-02-09 12:04:00+00:00,204.0,11.49,211.0,13.06,12.33,47.59359,-54.27349
2022-02-09 12:14:00+00:00,208.0,12.67,212.0,14.4,12.41,47.59359,-54.27349
2022-02-09 12:24:00+00:00,213.0,12.33,214.0,14.35,12.41,47.59359,-54.27349
2022-02-09 12:34:00+00:00,214.0,14.74,210.0,16.98,12.41,47.59359,-54.27349
2022-02-09 12:44:00+00:00,211.0,13.84,209.0,15.48,12.41,47.59359,-54.27349
2022-02-09 12:54:00+00:00,212.0,12.17,215.0,15.35,12.41,47.59359,-54.27349
2022-02-09 13:04:00+00:00,213.0,13.0,218.0,15.84,12.41,47.59359,-54.27349
2022-02-09 13:14:01+00:00,215.0,13.24,214.0,16.26,12.73,47.59359,-54.27349
2022-02-09 13:24:01+00:00,211.0,13.49,201.0,15.9,12.73,47.59359,-54.27349
2022-02-09 13:34:01+00:00,215.0,13.76,214.0,16.36,12.73,47.59359,-54.27349
2022-02-09 13:44:01+00:00,216.0,13.62,214.0,15.01,12.73,47.59359,-54.27349
2022-02-09 13:54:01+00:00,217.0,13.28,215.0,15.64,12.73,47.59359,-54.27349
2022-02-09 14:04:01+00:00,212.0,14.9,212.0,16.63,12.73,47.59359,-54.27349
2022-02-09 14:14:01+00:00,213.0,13.94,210.0,17.56,13.68,47.59359,-54.27349
2022-02-09 14:24:01+00:00,221.0,14.63,233.0,18.7,13.68,47.59359,-54.27349
2022-02-09 14:34:01+00:00,225.0,15.68,231.0,21.7,13.68,47.59359,-54.27349
2022-02-09 14:44:01+00:00,224.0,13.08,233.0,16.11,13.68,47.59359,-54.27349
2022-02-09 14:54:01+00:00,226.0,11.43,226.0,13.47,13.68,47.59359,-54.27349
2022-02-09 15:04:01+00:00,227.0,12.97,231.0,15.52,13.68,47.59359,-54.27349
2022-02-09 15:14:00+00:00,227.0,12.75,244.0,18.99,14.48,47.59359,-54.27349
2022-02-09 15:24:00+00:00,226.0,12.48,228.0,14.01,14.48,47.59359,-54.27349
2022-02-09 15:34:00+00:00,225.0,14.22,237.0,18.47,14.48,47.59359,-54.27349
2022-02-09 15:44:00+00:00,227.0,13.97,246.0,18.64,14.48,47.59359,-54.27349
2022-02-09 15:54:00+00:00,227.0,13.26,238.0,17.59,14.48,47.59359,-54.27349
2022-02-09 16:04:00+00:00,224.0,13.52,232.0,18.41,14.48,47.59359,-54.27349
2022-02-09 16:14:01+00:00,220.0,12.17,230.0,14.48,13.68,47.59359,-54.27349
2022-02-09 16:24:01+00:00,223.0,12.49,229.0,15.53,13.68,47.59359,-54.27349
2022-02-09 16:34:01+00:00,224.0,13.03,235.0,15.63,13.68,47.59359,-54.27349
2022-02-09 16:44:01+00:00,227.0,11.11,228.0,12.66,13.68,47.59359,-54.27349
2022-02-09 16:54:01+00:00,221.0,11.67,220.0,12.92,13.68,47.59359,-54.27349
2022-02-09 17:04:01+00:00,224.0,12.29,228.0,14.13,13.68,47.59359,-54.27349
2022-02-09 17:14:01+00:00,218.0,12.54,215.0,14.89,13.76,47.59359,-54.27349
2022-02-09 17:24:01+00:00,218.0,12.33,217.0,13.93,13.76,47.59359,-54.27349
2022-02-09 17:34:01+00:00,217.0,13.0,215.0,15.2,13.76,47.59359,-54.27349
2022-02-09 17:44:01+00:00,217.0,12.39,213.0,15.25,13.76,47.59359,-54.27349
2022-02-09 17:54:01+00:00,219.0,12.22,215.0,14.02,13.76,47.59359,-54.27349
2022-02-09 18:04:01+00:00,218.0,12.75,220.0,15.85,13.76,47.59359,-54.27349
2022-02-09 18:14:01+00:00,222.0,12.31,221.0,13.63,13.21,47.59359,-54.27349
2022-02-09 18:24:01+00:00,216.0,12.48,214.0,14.32,13.21,47.59359,-54.27349
2022-02-09 18:34:01+00:00,221.0,11.33,225.0,12.38,13.21,47.59359,-54.27349
2022-02-09 18:44:01+00:00,220.0,12.05,216.0,13.46,13.21,47.59359,-54.27349
2022-02-09 18:54:01+00:00,221.0,12.29,223.0,13.72,13.21,47.59359,-54.27349
2022-02-09 19:04:01+00:00,227.0,10.31,231.0,11.81,13.21,47.59359,-54.27349
2022-02-09 19:14:00+00:00,227.0,9.77,229.0,11.61,12.81,47.59359,-54.27349
2022-02-09 19:24:00+00:00,229.0,9.83,225.0,11.63,12.81,47.59359,-54.27349
2022-02-09 19:34:00+00:00,228.0,10.27,227.0,12.49,12.81,47.59359,-54.27349
2022-02-09 19:44:00+00:00,227.0,10.11,222.0,11.92,12.81,47.59359,-54.27349
2022-02-09 19:54:00+00:00,230.0,10.21,228.0,12.72,12.81,47.59359,-54.27349
2022-02-09 20:04:00+00:00,226.0,10.34,222.0,11.93,12.81,47.59359,-54.27349
2022-02-09 20:14:00+00:00,235.0,9.91,237.0,10.92,12.81,47.59359,-54.27349
2022-02-09 20:24:00+00:00,230.0,10.13,240.0,12.05,12.81,47.59359,-54.27349
2022-02-09 20:34:00+00:00,237.0,9.65,249.0,11.21,12.81,47.59359,-54.27349
2022-02-09 20:44:00+00:00,238.0,9.38,252.0,11.52,12.81,47.59359,-54.27349
2022-02-09 20:54:00+00:00,242.0,9.34,248.0,11.46,12.81,47.59359,-54.27349
2022-02-09 21:04:00+00:00,247.0,8.95,251.0,11.46,12.81,47.59359,-54.27349
2022-02-09 21:14:00+00:00,249.0,8.62,246.0,9.85,12.57,47.59359,-54.27349
2022-02-09 21:24:00+00:00,249.0,10.3,254.0,12.53,12.57,47.59359,-54.27349
2022-02-09 21:34:00+00:00,249.0,8.46,253.0,11.67,12.57,47.59359,-54.27349
2022-02-09 21:44:00+00:00,249.0,9.06,255.0,14.39,12.57,47.59359,-54.27349
2022-02-09 21:54:00+00:00,251.0,9.09,254.0,11.18,12.57,47.59359,-54.27349
2022-02-09 22:04:00+00:00,251.0,9.44,256.0,11.17,12.57,47.59359,-54.27349
2022-02-09 22:14:01+00:00,253.0,9.84,256.0,11.12,12.49,47.59359,-54.27349
2022-02-09 22:24:01+00:00,255.0,10.24,255.0,11.26,12.49,47.59359,-54.27349
2022-02-09 22:34:01+00:00,252.0,10.63,255.0,11.32,12.49,47.59359,-54.27349
2022-02-09 22:44:01+00:00,250.0,9.17,250.0,11.26,12.49,47.59359,-54.27349
2022-02-09 22:54:01+00:00,256.0,9.26,258.0,11.06,12.49,47.59359,-54.27349
2022-02-09 23:04:01+00:00,250.0,8.75,255.0,10.87,12.49,47.59359,-54.27349
2022-02-09 23:14:01+00:00,254.0,9.67,254.0,11.2,12.49,47.59359,-54.27349
2022-02-09 23:24:01+00:00,250.0,10.38,250.0,11.04,12.49,47.59359,-54.27349
2022-02-09 23:34:01+00:00,252.0,10.41,252.0,10.96,12.49,47.59359,-54.27349
2022-02-09 23:44:01+00:00,264.0,8.98,263.0,11.04,12.49,47.59359,-54.27349
2022-02-09 23:54:01+00:00,268.0,9.1,267.0,11.05,12.49,47.59359,-54.27349
